Retour au catalogue

STARLINK-4339

ActifCommunicationsSSO
NORAD 53054·PAYLOAD·🇺🇸 United States

Lancé Jul 11, 2022 depuis Vandenberg Space Force Base

Loading…

Prochains Passages (prochaines 24 heures)

TLE

FraisSource: CelesTrak SupGP

Époque: Sep 15, 2026, 01:25 UTC

1 53054C 22077M   26258.05951389 -.00100830  00000+0 -31294-2 0  2580
2 53054  97.2858  73.8344 0001122 106.0694 220.0577 15.33495941    17

Suivez STARLINK-4339 en temps réel avec AllMySat

Download on the App Store